timestamp,surface_pressure_avg,surface_temp_avg,battery_voltage,lat,long
2017-11-13 00:00:00+00:00,238.2448,8.69,12.97,47.84626,-54.09684
2017-11-13 00:10:00+00:00,240.7714,8.67,12.89,47.84626,-54.09684
2017-11-13 00:20:00+00:00,239.8331,8.6,12.97,47.84626,-54.09684
2017-11-13 00:30:00+00:00,234.4615,8.57,12.97,47.84626,-54.09684
2017-11-13 00:40:00+00:00,231.6998,8.57,12.97,47.84626,-54.09684
2017-11-13 00:50:00+00:00,231.7431,8.58,12.97,47.84626,-54.09684
2017-11-13 01:00:00+00:00,231.1014,8.59,12.97,47.84626,-54.09684
2017-11-13 01:10:00+00:00,228.5214,8.6,12.89,47.84626,-54.09684
2017-11-13 01:20:00+00:00,226.4615,8.6,12.97,47.84626,-54.09684
2017-11-13 01:30:00+00:00,226.3031,8.5,12.97,47.84626,-54.09684
2017-11-13 01:40:00+00:00,227.1115,8.5,12.97,47.84626,-54.09684
2017-11-13 01:50:00+00:00,225.1064,8.5,12.97,47.84626,-54.09684
2017-11-13 02:00:00+00:00,224.3248,8.5,12.97,47.84626,-54.09684
2017-11-13 02:10:00+00:00,228.8281,8.5,12.89,47.84626,-54.09684
2017-11-13 02:20:00+00:00,226.9514,8.57,12.97,47.84626,-54.09684
2017-11-13 02:30:00+00:00,225.1581,8.6,12.97,47.84626,-54.09684
2017-11-13 02:40:00+00:00,229.5381,8.67,12.97,47.84626,-54.09684
2017-11-13 02:50:00+00:00,233.7398,8.69,12.97,47.84626,-54.09684
2017-11-13 03:00:00+00:00,232.8731,8.7,12.89,47.84626,-54.09684
2017-11-13 03:10:00+00:00,231.0598,8.7,12.81,47.84626,-54.09684
2017-11-13 03:20:00+00:00,234.3248,8.7,12.97,47.84626,-54.09684
2017-11-13 03:30:00+00:00,237.1731,8.7,12.97,47.84626,-54.09684
2017-11-13 03:40:00+00:00,239.0431,8.7,12.97,47.84626,-54.09684
2017-11-13 03:50:00+00:00,240.7098,8.7,12.97,47.84626,-54.09684
2017-11-13 04:00:00+00:00,246.5881,8.7,12.89,47.84626,-54.09684
2017-11-13 04:10:00+00:00,251.0114,8.7,12.81,47.84626,-54.09684
2017-11-13 04:20:00+00:00,256.3597,8.7,12.89,47.84626,-54.09684
2017-11-13 04:30:00+00:00,261.063,8.7,12.89,47.84626,-54.09684
2017-11-13 04:40:00+00:00,265.9281,8.7,12.89,47.84626,-54.09684
2017-11-13 04:50:00+00:00,270.5797,8.85,12.97,47.84626,-54.09684
2017-11-13 05:00:00+00:00,277.3047,9.04,12.89,47.84626,-54.09684
2017-11-13 05:10:00+00:00,284.3231,9.1,12.81,47.84626,-54.09684
2017-11-13 05:20:00+00:00,290.4913,9.04,12.89,47.84626,-54.09684
2017-11-13 05:30:00+00:00,295.248,9.02,12.89,47.84626,-54.09684
2017-11-13 05:40:00+00:00,297.0997,9.08,12.89,47.84626,-54.09684
2017-11-13 05:50:00+00:00,297.5797,9.0,12.89,47.84626,-54.09684
2017-11-13 06:00:00+00:00,303.5647,9.0,12.81,47.84626,-54.09684
2017-11-13 06:10:00+00:00,309.4764,9.04,12.81,47.84626,-54.09684
2017-11-13 06:20:00+00:00,310.0596,9.08,12.89,47.84626,-54.09684
2017-11-13 06:30:00+00:00,309.928,9.08,12.89,47.84626,-54.09684
2017-11-13 06:40:00+00:00,314.8796,9.09,12.89,47.84626,-54.09684
2017-11-13 06:50:00+00:00,319.0513,9.1,12.89,47.84626,-54.09684
2017-11-13 07:00:00+00:00,318.5081,9.1,12.81,47.84626,-54.09684
2017-11-13 07:10:00+00:00,319.788,9.1,12.73,47.84626,-54.09684
2017-11-13 07:20:00+00:00,326.4613,9.1,12.81,47.84626,-54.09684
2017-11-13 07:30:00+00:00,327.2729,9.14,12.81,47.84626,-54.09684
2017-11-13 07:40:00+00:00,327.138,9.18,12.89,47.84626,-54.09684
2017-11-13 07:50:00+00:00,329.0913,9.18,12.89,47.84626,-54.09684
2017-11-13 08:00:00+00:00,329.7279,9.19,12.81,47.84626,-54.09684
2017-11-13 08:10:00+00:00,324.763,9.1,12.73,47.84626,-54.09684
2017-11-13 08:20:00+00:00,321.7163,9.1,12.81,47.84626,-54.09684
2017-11-13 08:30:00+00:00,320.4263,9.13,12.81,47.84626,-54.09684
2017-11-13 08:40:00+00:00,317.8347,9.1,12.81,47.84626,-54.09684
2017-11-13 08:50:00+00:00,312.0913,9.1,12.81,47.84626,-54.09684
2017-11-13 09:00:00+00:00,307.5664,9.1,12.81,47.84626,-54.09684
2017-11-13 09:10:00+00:00,302.9864,9.1,12.73,47.84626,-54.09684
2017-11-13 09:20:00+00:00,297.528,9.1,12.81,47.84626,-54.09684
2017-11-13 09:30:00+00:00,292.0314,9.1,12.81,47.84626,-54.09684
2017-11-13 09:40:00+00:00,283.548,9.1,12.81,47.84626,-54.09684
2017-11-13 09:50:00+00:00,279.1414,9.1,12.81,47.84626,-54.09684
2017-11-13 10:00:00+00:00,272.6397,9.1,12.73,47.84626,-54.09684
2017-11-13 10:10:00+00:00,267.3164,9.1,12.73,47.84626,-54.09684
2017-11-13 10:20:00+00:00,260.1765,9.1,12.81,47.84626,-54.09684
2017-11-13 10:30:00+00:00,255.2997,9.1,12.81,47.84626,-54.09684
2017-11-13 10:40:00+00:00,248.9598,9.1,12.81,47.84626,-54.09684
2017-11-13 10:50:00+00:00,241.8581,9.0,12.81,47.84626,-54.09684
2017-11-13 11:00:00+00:00,235.8015,8.9,12.89,47.84626,-54.09684
2017-11-13 11:10:00+00:00,232.2631,8.9,12.81,47.84626,-54.09684
2017-11-13 11:20:00+00:00,230.3481,8.9,13.05,47.84626,-54.09684
2017-11-13 11:30:00+00:00,227.1098,8.8,13.21,47.84626,-54.09684
2017-11-13 11:40:00+00:00,223.108,8.8,13.84,47.84626,-54.09684
2017-11-13 11:50:00+00:00,218.8047,8.8,13.68,47.84626,-54.09684
2017-11-13 12:00:00+00:00,214.3998,8.75,13.6,47.84626,-54.09684
2017-11-13 12:10:00+00:00,208.9297,8.7,13.68,47.84626,-54.09684
2017-11-13 12:20:00+00:00,206.3948,8.7,13.6,47.84626,-54.09684
2017-11-13 12:30:00+00:00,206.1364,8.74,13.53,47.84626,-54.09684
2017-11-13 12:40:00+00:00,204.0781,8.75,13.44,47.84626,-54.09684
2017-11-13 12:50:00+00:00,200.2398,8.74,13.44,47.84626,-54.09684
2017-11-13 13:00:00+00:00,197.5714,8.73,13.53,47.84626,-54.09684
2017-11-13 13:10:00+00:00,195.9465,8.77,13.53,47.84626,-54.09684
2017-11-13 13:20:00+00:00,195.7765,8.8,13.6,47.84626,-54.09684
2017-11-13 13:30:00+00:00,197.3365,8.8,13.53,47.84626,-54.09684
2017-11-13 13:40:00+00:00,198.5782,8.8,13.53,47.84626,-54.09684
2017-11-13 13:50:00+00:00,201.2697,8.8,13.6,47.84626,-54.09684
2017-11-13 14:00:00+00:00,202.1248,8.8,13.53,47.84626,-54.09684
2017-11-13 14:10:00+00:00,201.393,8.8,13.53,47.84626,-54.09684
2017-11-13 14:20:00+00:00,202.0198,8.8,13.44,47.84626,-54.09684
2017-11-13 14:30:00+00:00,202.6048,8.8,13.53,47.84626,-54.09684
2017-11-13 14:40:00+00:00,201.7881,8.83,13.44,47.84626,-54.09684
2017-11-13 14:50:00+00:00,201.5181,8.84,13.44,47.84626,-54.09684
2017-11-13 15:00:00+00:00,203.3447,8.85,13.44,47.84626,-54.09684
2017-11-13 15:10:00+00:00,202.7481,8.87,13.53,47.84626,-54.09684
2017-11-13 15:20:00+00:00,202.6148,8.89,13.6,47.84626,-54.09684
2017-11-13 15:30:00+00:00,207.8514,8.9,13.53,47.84626,-54.09684
2017-11-13 15:40:00+00:00,211.8381,8.9,13.53,47.84626,-54.09684
2017-11-13 15:50:00+00:00,211.6165,8.96,13.53,47.84626,-54.09684
2017-11-13 16:00:00+00:00,214.8564,8.93,13.44,47.84626,-54.09684
2017-11-13 16:10:00+00:00,222.3614,8.99,13.6,47.84626,-54.09684
2017-11-13 16:20:00+00:00,224.3698,9.0,13.53,47.84626,-54.09684
2017-11-13 16:30:00+00:00,224.6331,9.0,13.6,47.84626,-54.09684
2017-11-13 16:40:00+00:00,230.4514,9.05,13.53,47.84626,-54.09684
2017-11-13 16:50:00+00:00,238.4197,9.09,13.53,47.84626,-54.09684
2017-11-13 17:00:00+00:00,243.3398,9.1,13.92,47.84626,-54.09684
2017-11-13 17:10:00+00:00,245.9497,9.1,13.76,47.84626,-54.09684
2017-11-13 17:20:00+00:00,252.4464,9.1,13.44,47.84626,-54.09684
2017-11-13 17:30:00+00:00,261.6547,9.1,13.68,47.84626,-54.09684
2017-11-13 17:40:00+00:00,269.733,9.12,13.53,47.84626,-54.09684
2017-11-13 17:50:00+00:00,272.8881,9.19,13.53,47.84626,-54.09684
2017-11-13 18:00:00+00:00,277.9697,9.2,13.84,47.84626,-54.09684
2017-11-13 18:10:00+00:00,282.423,9.2,13.92,47.84626,-54.09684
2017-11-13 18:20:00+00:00,287.9264,9.2,14.16,47.84626,-54.09684
2017-11-13 18:30:00+00:00,292.7763,9.23,14.08,47.84626,-54.09684
2017-11-13 18:40:00+00:00,297.4113,9.3,14.08,47.84626,-54.09684
2017-11-13 18:50:00+00:00,301.5797,9.3,14.0,47.84626,-54.09684
2017-11-13 19:00:00+00:00,307.4047,9.3,13.84,47.84626,-54.09684
2017-11-13 19:10:00+00:00,311.8096,9.3,13.53,47.84626,-54.09684
2017-11-13 19:20:00+00:00,313.393,9.3,13.44,47.84626,-54.09684
2017-11-13 19:30:00+00:00,316.8547,9.3,13.29,47.84626,-54.09684
2017-11-13 19:40:00+00:00,322.2263,9.3,13.29,47.84626,-54.09684
2017-11-13 19:50:00+00:00,320.8763,9.32,13.29,47.84626,-54.09684
2017-11-13 20:00:00+00:00,320.8281,9.35,13.21,47.84626,-54.09684
2017-11-13 20:10:00+00:00,325.233,9.39,13.05,47.84626,-54.09684
2017-11-13 20:20:00+00:00,327.033,9.39,13.13,47.84626,-54.09684
2017-11-13 20:30:00+00:00,323.973,9.31,13.13,47.84626,-54.09684
2017-11-13 20:40:00+00:00,324.2697,9.34,13.13,47.84626,-54.09684
2017-11-13 20:50:00+00:00,325.948,9.39,13.13,47.84626,-54.09684
2017-11-13 21:00:00+00:00,325.3164,9.38,13.05,47.84626,-54.09684
2017-11-13 21:10:00+00:00,322.168,9.3,12.97,47.84626,-54.09684
2017-11-13 21:20:00+00:00,318.903,9.3,13.05,47.84626,-54.09684
2017-11-13 21:30:00+00:00,314.1931,9.3,13.05,47.84626,-54.09684
2017-11-13 21:40:00+00:00,311.723,9.3,13.05,47.84626,-54.09684
2017-11-13 21:50:00+00:00,309.6497,9.3,13.05,47.84626,-54.09684
2017-11-13 22:00:00+00:00,304.3463,9.36,13.05,47.84626,-54.09684
2017-11-13 22:10:00+00:00,295.9147,9.39,12.97,47.84626,-54.09684
2017-11-13 22:20:00+00:00,290.5497,9.4,13.05,47.84626,-54.09684
2017-11-13 22:30:00+00:00,288.0663,9.4,13.05,47.84626,-54.09684
2017-11-13 22:40:00+00:00,280.8447,9.3,13.05,47.84626,-54.09684
2017-11-13 22:50:00+00:00,273.4647,9.2,13.05,47.84626,-54.09684
2017-11-13 23:00:00+00:00,267.6414,9.0,12.97,47.84626,-54.09684
2017-11-13 23:10:00+00:00,261.8197,8.9,12.89,47.84626,-54.09684
2017-11-13 23:20:00+00:00,253.2597,8.9,12.97,47.84626,-54.09684
2017-11-13 23:30:00+00:00,245.0531,9.0,12.97,47.84626,-54.09684
2017-11-13 23:40:00+00:00,238.3948,8.9,13.05,47.84626,-54.09684
2017-11-13 23:50:00+00:00,233.2114,8.9,13.05,47.84626,-54.09684
